TimePDT,TemperatureF,Dew PointF,Humidity,Sea Level PressureIn,VisibilityMPH,Wind Direction,Wind SpeedMPH,Gust SpeedMPH,PrecipitationIn,Events,Conditions,WindDirDegrees,DateUTC
12:04 AM,55.4,50.0,82,30.04,10.0,Calm,Calm,-,N/A,,Mostly Cloudy,0,2012-10-13 07:04:00
12:30 AM,57.2,50.0,77,30.05,10.0,West,9.2,-,N/A,,Mostly Cloudy,280,2012-10-13 07:30:00
12:53 AM,57.0,50.0,77,30.06,10.0,WNW,6.9,-,N/A,,Scattered Clouds,290,2012-10-13 07:53:00
1:53 AM,57.0,51.1,81,30.08,10.0,WSW,5.8,-,N/A,,Overcast,250,2012-10-13 08:53:00
2:53 AM,57.0,51.1,81,30.09,10.0,Variable,5.8,-,N/A,,Mostly Cloudy,0,2012-10-13 09:53:00
3:27 AM,55.4,50.0,82,30.10,10.0,Calm,Calm,-,N/A,,Mostly Cloudy,0,2012-10-13 10:27:00
3:53 AM,54.0,48.9,83,30.11,10.0,WSW,8.1,-,N/A,,Overcast,240,2012-10-13 10:53:00
4:15 AM,53.6,48.2,82,30.11,10.0,SW,5.8,-,N/A,,Mostly Cloudy,230,2012-10-13 11:15:00
4:53 AM,54.0,50.0,86,30.12,10.0,SW,5.8,-,N/A,,Overcast,230,2012-10-13 11:53:00
5:53 AM,53.1,48.9,86,30.14,10.0,WSW,4.6,-,N/A,,Mostly Cloudy,240,2012-10-13 12:53:00
6:53 AM,53.1,48.0,83,30.14,10.0,SW,8.1,-,N/A,,Mostly Cloudy,230,2012-10-13 13:53:00
7:53 AM,52.0,48.0,86,30.16,10.0,East,5.8,-,N/A,,Partly Cloudy,100,2012-10-13 14:53:00
8:53 AM,55.0,50.0,83,30.18,10.0,Calm,Calm,-,N/A,,Scattered Clouds,0,2012-10-13 15:53:00
9:53 AM,60.1,52.0,75,30.19,10.0,SE,4.6,-,N/A,,Overcast,130,2012-10-13 16:53:00
11:53 AM,66.9,53.1,61,30.19,10.0,NW,12.7,16.1,N/A,,Scattered Clouds,320,2012-10-13 18:53:00
12:53 PM,68.0,53.1,59,30.19,10.0,NW,10.4,-,N/A,,Mostly Cloudy,310,2012-10-13 19:53:00
1:53 PM,66.9,53.1,61,30.17,10.0,WNW,9.2,-,N/A,,Overcast,300,2012-10-13 20:53:00
2:53 PM,66.9,53.1,61,30.17,10.0,NW,11.5,-,0.00,Rain,Light Rain,310,2012-10-13 21:53:00
3:53 PM,66.0,54.0,65,30.18,10.0,NW,13.8,19.6,0.00,,Mostly Cloudy,310,2012-10-13 22:53:00
5:53 PM,63.0,55.0,75,30.19,10.0,NNW,5.8,-,N/A,,Overcast,330,2012-10-14 00:53:00
6:53 PM,63.0,54.0,72,30.19,10.0,NW,8.1,-,N/A,,Overcast,310,2012-10-14 01:53:00
7:53 PM,61.0,54.0,78,30.19,10.0,SW,3.5,-,N/A,,Partly Cloudy,230,2012-10-14 02:53:00
8:53 PM,59.0,53.1,81,30.19,10.0,SSW,4.6,-,N/A,,Clear,210,2012-10-14 03:53:00
9:53 PM,60.1,53.1,78,30.19,10.0,Calm,Calm,-,N/A,,Clear,0,2012-10-14 04:53:00
10:53 PM,57.0,52.0,83,30.17,10.0,Calm,Calm,-,N/A,,Clear,0,2012-10-14 05:53:00
11:53 PM,54.0,51.1,90,30.16,10.0,SE,4.6,-,N/A,,Clear,140,2012-10-14 06:53:00